Year,Month,Day,Hour,Minute,Value (Times are PST for temperature in C)
2010,11,04,00,00,6.80
2010,11,04,00,01,6.80
2010,11,04,00,02,6.70
2010,11,04,00,03,6.70
2010,11,04,00,04,6.70
2010,11,04,00,05,6.70
2010,11,04,00,06,6.70
2010,11,04,00,07,6.70
2010,11,04,00,08,6.70
2010,11,04,00,09,6.70
2010,11,04,00,10,6.70
2010,11,04,00,11,6.70
2010,11,04,00,12,6.70
2010,11,04,00,13,6.70
2010,11,04,00,14,6.70
2010,11,04,00,15,6.70
2010,11,04,00,16,6.70
2010,11,04,00,17,6.70
2010,11,04,00,18,6.70
2010,11,04,00,19,6.60
2010,11,04,00,20,6.60
2010,11,04,00,21,6.60
2010,11,04,00,22,6.60
2010,11,04,00,23,6.60
2010,11,04,00,24,6.60
2010,11,04,00,25,6.60
2010,11,04,00,26,6.60
2010,11,04,00,27,6.50
2010,11,04,00,28,6.60
2010,11,04,00,29,6.50
2010,11,04,00,30,6.50
2010,11,04,00,31,6.50
2010,11,04,00,32,6.50
2010,11,04,00,33,6.50
2010,11,04,00,34,6.50
2010,11,04,00,35,6.50
2010,11,04,00,36,6.50
2010,11,04,00,37,6.50
2010,11,04,00,38,6.40
2010,11,04,00,39,6.40
2010,11,04,00,40,6.40
2010,11,04,00,41,6.40
2010,11,04,00,42,6.40
2010,11,04,00,43,6.40
2010,11,04,00,44,6.40
2010,11,04,00,45,6.40
2010,11,04,00,46,6.40
2010,11,04,00,47,6.40
2010,11,04,00,48,6.40
2010,11,04,00,49,6.40
2010,11,04,00,50,6.40
2010,11,04,00,51,6.40
2010,11,04,00,52,6.40
2010,11,04,00,53,6.40
2010,11,04,00,54,6.40
2010,11,04,00,55,6.40
2010,11,04,00,56,6.40
2010,11,04,00,57,6.40
2010,11,04,00,58,6.40
2010,11,04,00,59,6.40
2010,11,04,01,00,6.40
2010,11,04,01,01,6.40
2010,11,04,01,02,6.40
2010,11,04,01,03,6.40
2010,11,04,01,04,6.40
2010,11,04,01,05,6.40
2010,11,04,01,06,6.40
2010,11,04,01,07,6.40
2010,11,04,01,08,6.40
2010,11,04,01,09,6.30
2010,11,04,01,10,6.30
2010,11,04,01,11,6.30
2010,11,04,01,12,6.30
2010,11,04,01,13,6.30
2010,11,04,01,14,6.30
2010,11,04,01,15,6.30
2010,11,04,01,16,6.30
2010,11,04,01,17,6.30
2010,11,04,01,18,6.30
2010,11,04,01,19,6.30
2010,11,04,01,20,6.30
2010,11,04,01,21,6.20
2010,11,04,01,22,6.20
2010,11,04,01,23,6.20
2010,11,04,01,24,6.20
2010,11,04,01,25,6.20
2010,11,04,01,26,6.20
2010,11,04,01,27,6.20
2010,11,04,01,28,6.20
2010,11,04,01,29,6.20
2010,11,04,01,30,6.20
2010,11,04,01,31,6.20
2010,11,04,01,32,6.20
2010,11,04,01,33,6.20
2010,11,04,01,34,6.10
2010,11,04,01,35,6.10
2010,11,04,01,36,6.10
2010,11,04,01,37,6.10
2010,11,04,01,38,6.20
2010,11,04,01,39,6.20
2010,11,04,01,40,6.20
2010,11,04,01,41,6.20
2010,11,04,01,42,6.20
2010,11,04,01,43,6.20
2010,11,04,01,44,6.20
2010,11,04,01,45,6.20
2010,11,04,01,46,6.20
2010,11,04,01,47,6.20
2010,11,04,01,48,6.20
2010,11,04,01,49,6.10
2010,11,04,01,50,6.10
2010,11,04,01,51,6.10
2010,11,04,01,52,6.10
2010,11,04,01,53,6.10
2010,11,04,01,54,6.10
2010,11,04,01,55,6.00
2010,11,04,01,56,6.00
2010,11,04,01,57,6.00
2010,11,04,01,58,6.00
2010,11,04,01,59,5.90
2010,11,04,02,00,5.90
2010,11,04,02,01,5.90
2010,11,04,02,02,5.90
2010,11,04,02,03,5.90
2010,11,04,02,04,5.90
2010,11,04,02,05,5.90
2010,11,04,02,06,5.90
2010,11,04,02,07,5.80
2010,11,04,02,08,5.80
2010,11,04,02,09,5.80
2010,11,04,02,10,5.80
2010,11,04,02,11,5.80
2010,11,04,02,12,5.80
2010,11,04,02,13,5.80
2010,11,04,02,14,5.80
2010,11,04,02,15,5.80
2010,11,04,02,16,5.70
2010,11,04,02,17,5.70
2010,11,04,02,18,5.70
2010,11,04,02,19,5.80
2010,11,04,02,20,5.80
2010,11,04,02,21,5.80
2010,11,04,02,22,5.80
2010,11,04,02,23,5.80
2010,11,04,02,24,5.80
2010,11,04,02,25,5.80
2010,11,04,02,26,5.80
2010,11,04,02,27,5.80
2010,11,04,02,28,5.90
2010,11,04,02,29,5.90
2010,11,04,02,30,5.90
2010,11,04,02,31,5.90
2010,11,04,02,32,5.90
2010,11,04,02,33,5.90
2010,11,04,02,34,5.90
2010,11,04,02,35,5.90
2010,11,04,02,36,5.90
2010,11,04,02,37,5.90
2010,11,04,02,38,5.80
2010,11,04,02,39,5.80
2010,11,04,02,40,5.80
2010,11,04,02,41,5.80
2010,11,04,02,42,5.80
2010,11,04,02,43,5.80
2010,11,04,02,44,5.80
2010,11,04,02,45,5.80
2010,11,04,02,46,5.80
2010,11,04,02,47,5.80
2010,11,04,02,48,5.80
2010,11,04,02,49,5.80
2010,11,04,02,50,5.90
2010,11,04,02,51,5.90
2010,11,04,02,52,5.90
2010,11,04,02,53,5.90
2010,11,04,02,54,5.90
2010,11,04,02,55,5.90
2010,11,04,02,56,5.90
2010,11,04,02,57,5.90
2010,11,04,02,58,5.90
2010,11,04,02,59,5.90
2010,11,04,03,00,5.90
2010,11,04,03,01,5.90
2010,11,04,03,02,5.90
2010,11,04,03,03,5.90
2010,11,04,03,04,5.90
2010,11,04,03,05,5.90
2010,11,04,03,06,5.90
2010,11,04,03,07,5.90
2010,11,04,03,08,5.90
2010,11,04,03,09,5.90
2010,11,04,03,10,5.90
2010,11,04,03,11,5.90
2010,11,04,03,12,5.90
2010,11,04,03,13,5.90
2010,11,04,03,14,5.90
2010,11,04,03,15,5.90
2010,11,04,03,16,5.90
2010,11,04,03,17,5.80
2010,11,04,03,18,5.80
2010,11,04,03,19,5.80
2010,11,04,03,20,5.80
2010,11,04,03,21,5.80
2010,11,04,03,22,5.80
2010,11,04,03,23,5.80
2010,11,04,03,24,5.80
2010,11,04,03,25,5.80
2010,11,04,03,26,5.80
2010,11,04,03,27,5.80
2010,11,04,03,28,5.80
2010,11,04,03,29,5.80
2010,11,04,03,30,5.70
2010,11,04,03,31,5.70
2010,11,04,03,32,5.70
2010,11,04,03,33,5.70
2010,11,04,03,34,5.70
2010,11,04,03,35,5.70
2010,11,04,03,36,5.70
2010,11,04,03,37,5.60
2010,11,04,03,38,5.60
2010,11,04,03,39,5.60
2010,11,04,03,40,5.60
2010,11,04,03,41,5.60
2010,11,04,03,42,5.60
2010,11,04,03,43,5.60
2010,11,04,03,44,5.60
2010,11,04,03,45,5.60
2010,11,04,03,49,5.60
2010,11,04,03,50,5.60
2010,11,04,03,51,5.60
2010,11,04,03,52,5.60
2010,11,04,03,53,5.60
2010,11,04,03,54,5.60
2010,11,04,03,55,5.60
2010,11,04,03,56,5.50
2010,11,04,03,57,5.50
2010,11,04,03,58,5.50
2010,11,04,03,59,5.50
2010,11,04,04,00,5.40
2010,11,04,04,01,5.40
2010,11,04,04,02,5.40
2010,11,04,04,03,5.40
2010,11,04,04,04,5.40
2010,11,04,04,05,5.40
2010,11,04,04,06,5.40
2010,11,04,04,07,5.40
2010,11,04,04,08,5.40
2010,11,04,04,09,5.50
2010,11,04,04,10,5.50
2010,11,04,04,11,5.50
2010,11,04,04,12,5.50
2010,11,04,04,13,5.50
2010,11,04,04,14,5.50
2010,11,04,04,15,5.50
2010,11,04,04,16,5.40
2010,11,04,04,17,5.50
2010,11,04,04,18,5.40
2010,11,04,04,19,5.40
2010,11,04,04,20,5.40
2010,11,04,04,21,5.40
2010,11,04,04,22,5.40
2010,11,04,04,23,5.40
2010,11,04,04,24,5.40
2010,11,04,04,25,5.50
2010,11,04,04,26,5.50
2010,11,04,04,27,5.50
2010,11,04,04,28,5.50
2010,11,04,04,29,5.50
2010,11,04,04,30,5.50
2010,11,04,04,31,5.50
2010,11,04,04,32,5.50
2010,11,04,04,33,5.50
2010,11,04,04,34,5.50
2010,11,04,04,35,5.50
2010,11,04,04,36,5.40
2010,11,04,04,37,5.40
2010,11,04,04,38,5.40
2010,11,04,04,39,5.40
2010,11,04,04,40,5.40
2010,11,04,04,41,5.40
2010,11,04,04,42,5.40
2010,11,04,04,43,5.40
2010,11,04,04,44,5.40
2010,11,04,04,45,5.40
2010,11,04,04,46,5.30
2010,11,04,04,47,5.30
2010,11,04,04,48,5.30
2010,11,04,04,49,5.30
2010,11,04,04,50,5.30
2010,11,04,04,51,5.30
2010,11,04,04,52,5.30
2010,11,04,04,53,5.30
2010,11,04,04,54,5.30
2010,11,04,04,55,5.30
2010,11,04,04,56,5.30
2010,11,04,04,57,5.30
2010,11,04,04,58,5.30
2010,11,04,04,59,5.30
2010,11,04,05,00,5.30
2010,11,04,05,01,5.30
2010,11,04,05,02,5.30
2010,11,04,05,03,5.30
2010,11,04,05,04,5.30
2010,11,04,05,05,5.30
2010,11,04,05,06,5.20
2010,11,04,05,07,5.20
2010,11,04,05,08,5.20
2010,11,04,05,09,5.20
2010,11,04,05,10,5.20
2010,11,04,05,11,5.20
2010,11,04,05,12,5.20
2010,11,04,05,13,5.20
2010,11,04,05,14,5.30
2010,11,04,05,15,5.30
2010,11,04,05,16,5.30
2010,11,04,05,17,5.30
2010,11,04,05,18,5.40
2010,11,04,05,19,5.40
2010,11,04,05,20,5.40
2010,11,04,05,21,5.40
2010,11,04,05,22,5.40
2010,11,04,05,23,5.40
2010,11,04,05,24,5.40
2010,11,04,05,25,5.40
2010,11,04,05,26,5.40
2010,11,04,05,27,5.40
2010,11,04,05,28,5.40
2010,11,04,05,29,5.40
2010,11,04,05,30,5.40
2010,11,04,05,31,5.40
2010,11,04,05,32,5.40
2010,11,04,05,33,5.50
2010,11,04,05,34,5.50
2010,11,04,05,35,5.50
2010,11,04,05,36,5.50
2010,11,04,05,37,5.50
2010,11,04,05,38,5.50
2010,11,04,05,39,5.40
2010,11,04,05,40,5.40
2010,11,04,05,41,5.40
2010,11,04,05,42,5.30
2010,11,04,05,43,5.30
2010,11,04,05,44,5.30
2010,11,04,05,45,5.30
2010,11,04,05,46,5.30
2010,11,04,05,47,5.20
2010,11,04,05,48,5.20
2010,11,04,05,49,5.20
2010,11,04,05,50,5.20
2010,11,04,05,51,5.20
2010,11,04,05,52,5.20
2010,11,04,05,53,5.20
2010,11,04,05,54,5.20
2010,11,04,05,55,5.20
2010,11,04,05,56,5.20
2010,11,04,05,57,5.20
2010,11,04,05,58,5.20
2010,11,04,05,59,5.20
2010,11,04,06,00,5.20
2010,11,04,06,01,5.20
2010,11,04,06,02,5.20
2010,11,04,06,03,5.20
2010,11,04,06,04,5.20
2010,11,04,06,05,5.20
2010,11,04,06,06,5.20
2010,11,04,06,07,5.10
2010,11,04,06,08,5.10
2010,11,04,06,09,5.10
2010,11,04,06,10,5.00
2010,11,04,06,11,5.00
2010,11,04,06,12,5.00
2010,11,04,06,13,5.00
2010,11,04,06,14,5.00
2010,11,04,06,15,5.00
2010,11,04,06,16,5.00
2010,11,04,06,17,5.00
2010,11,04,06,18,5.00
2010,11,04,06,19,5.00
2010,11,04,06,20,5.00
2010,11,04,06,21,5.00
2010,11,04,06,22,5.00
2010,11,04,06,23,5.00
2010,11,04,06,24,5.00
2010,11,04,06,25,5.10
2010,11,04,06,26,5.10
2010,11,04,06,27,5.10
2010,11,04,06,28,5.10
2010,11,04,06,29,5.10
2010,11,04,06,30,5.10
2010,11,04,06,31,5.10
2010,11,04,06,32,5.10
2010,11,04,06,33,5.10
2010,11,04,06,34,5.10
2010,11,04,06,35,5.10
2010,11,04,06,36,5.10
2010,11,04,06,37,5.10
2010,11,04,06,38,5.10
2010,11,04,06,39,5.10
2010,11,04,06,40,5.10
2010,11,04,06,41,5.10
2010,11,04,06,42,5.10
2010,11,04,06,43,5.10
2010,11,04,06,44,5.10
2010,11,04,06,45,5.00
2010,11,04,06,46,5.00
2010,11,04,06,47,5.00
2010,11,04,06,48,5.00
2010,11,04,06,49,5.00
2010,11,04,06,50,4.90
2010,11,04,06,51,4.90
2010,11,04,06,52,4.90
2010,11,04,06,53,4.90
2010,11,04,06,54,4.90
2010,11,04,06,55,4.90
2010,11,04,06,56,4.90
2010,11,04,06,57,4.90
2010,11,04,06,58,4.80
2010,11,04,06,59,4.80
2010,11,04,07,00,4.80
2010,11,04,07,01,4.80
2010,11,04,07,02,4.80
2010,11,04,07,03,4.80
2010,11,04,07,04,4.80
2010,11,04,07,05,4.80
2010,11,04,07,06,4.90
2010,11,04,07,07,4.90
2010,11,04,07,08,4.90
2010,11,04,07,09,4.90
2010,11,04,07,10,4.90
2010,11,04,07,11,4.90
2010,11,04,07,12,4.80
2010,11,04,07,13,4.80
2010,11,04,07,14,4.80
2010,11,04,07,15,4.80
2010,11,04,07,16,4.80
2010,11,04,07,17,4.70
2010,11,04,07,18,4.70
2010,11,04,07,19,4.70
2010,11,04,07,20,4.70
2010,11,04,07,21,4.70
2010,11,04,07,22,4.70
2010,11,04,07,23,4.70
2010,11,04,07,24,4.70
2010,11,04,07,25,4.70
2010,11,04,07,26,4.70
2010,11,04,07,27,4.70
2010,11,04,07,28,4.70
2010,11,04,07,29,4.70
2010,11,04,07,30,4.70
2010,11,04,07,31,4.70
2010,11,04,07,32,4.70
2010,11,04,07,33,4.70
2010,11,04,07,34,4.70
2010,11,04,07,35,4.80
2010,11,04,07,36,4.80
2010,11,04,07,37,4.80
2010,11,04,07,38,4.80
2010,11,04,07,39,4.80
2010,11,04,07,40,4.80
2010,11,04,07,41,4.80
2010,11,04,07,42,4.80
2010,11,04,07,43,4.80
2010,11,04,07,44,4.80
2010,11,04,07,45,4.80
2010,11,04,07,46,4.80
2010,11,04,07,47,4.80
2010,11,04,07,48,4.80
2010,11,04,07,49,4.80
2010,11,04,07,50,4.80
2010,11,04,07,51,4.80
2010,11,04,07,52,4.80
2010,11,04,07,53,4.80
2010,11,04,07,54,4.80
2010,11,04,07,55,4.80
2010,11,04,07,56,4.80
2010,11,04,07,57,4.80
2010,11,04,07,58,4.80
2010,11,04,07,59,4.80
2010,11,04,08,00,4.80
2010,11,04,08,01,4.80
2010,11,04,08,02,4.80
2010,11,04,08,03,4.80
2010,11,04,08,04,4.70
2010,11,04,08,05,4.70
2010,11,04,08,06,4.70
2010,11,04,08,07,4.70
2010,11,04,08,08,4.70
2010,11,04,08,09,4.70
2010,11,04,08,10,4.70
2010,11,04,08,11,4.70
2010,11,04,08,12,4.70
2010,11,04,08,13,4.70
2010,11,04,08,14,4.70
2010,11,04,08,15,4.70
2010,11,04,08,16,4.70
2010,11,04,08,17,4.70
2010,11,04,08,18,4.70
2010,11,04,08,19,4.70
2010,11,04,08,20,4.70
2010,11,04,08,21,4.70
2010,11,04,08,22,4.70
2010,11,04,08,23,4.70
2010,11,04,08,24,4.70
2010,11,04,08,25,4.70
2010,11,04,08,26,4.70
2010,11,04,08,27,4.70
2010,11,04,08,28,4.80
2010,11,04,08,29,4.80
2010,11,04,08,30,4.80
2010,11,04,08,31,4.80
2010,11,04,08,32,4.80
2010,11,04,08,33,4.80
2010,11,04,08,34,4.80
2010,11,04,08,35,4.80
2010,11,04,08,36,4.80
2010,11,04,08,37,4.80
2010,11,04,08,38,4.80
2010,11,04,08,39,4.80
2010,11,04,08,40,4.90
2010,11,04,08,41,4.90
2010,11,04,08,42,4.90
2010,11,04,08,43,5.00
2010,11,04,08,44,5.00
2010,11,04,08,45,5.10
2010,11,04,08,46,5.10
2010,11,04,08,47,5.10
2010,11,04,08,48,5.10
2010,11,04,08,49,5.10
2010,11,04,08,50,5.20
2010,11,04,08,51,5.20
2010,11,04,08,52,5.20
2010,11,04,08,53,5.20
2010,11,04,08,54,5.20
2010,11,04,08,55,5.20
2010,11,04,08,56,5.20
2010,11,04,08,57,5.20
2010,11,04,08,58,5.20
2010,11,04,08,59,5.20
2010,11,04,09,00,5.20
2010,11,04,09,01,5.20
2010,11,04,09,02,5.20
2010,11,04,09,03,5.30
2010,11,04,09,04,5.30
2010,11,04,09,05,5.30
2010,11,04,09,06,5.30
2010,11,04,09,07,5.40
2010,11,04,09,08,5.40
2010,11,04,09,09,5.50
2010,11,04,09,10,5.60
2010,11,04,09,11,5.60
2010,11,04,09,12,5.70
2010,11,04,09,13,5.80
2010,11,04,09,14,5.80
2010,11,04,09,15,5.90
2010,11,04,09,16,5.90
2010,11,04,09,17,5.90
2010,11,04,09,18,5.90
2010,11,04,09,19,5.90
2010,11,04,09,20,5.90
2010,11,04,09,21,5.90
2010,11,04,09,22,5.90
2010,11,04,09,23,6.00
2010,11,04,09,24,6.00
2010,11,04,09,25,6.00
2010,11,04,09,26,6.00
2010,11,04,09,27,6.00
2010,11,04,09,28,6.00
2010,11,04,09,29,6.00
2010,11,04,09,30,6.00
2010,11,04,09,31,6.00
2010,11,04,09,32,6.00
2010,11,04,09,33,6.00
2010,11,04,09,34,6.00
2010,11,04,09,35,6.00
2010,11,04,09,36,6.10
2010,11,04,09,37,6.10
2010,11,04,09,38,6.10
2010,11,04,09,39,6.10
2010,11,04,09,40,6.10
2010,11,04,09,41,6.10
2010,11,04,09,42,6.10
2010,11,04,09,43,6.10
2010,11,04,09,44,6.10
2010,11,04,09,45,6.10
2010,11,04,09,46,6.10
2010,11,04,09,47,6.10
2010,11,04,09,48,6.10
2010,11,04,09,49,6.10
2010,11,04,09,50,6.10
2010,11,04,09,51,6.20
2010,11,04,09,52,6.20
2010,11,04,09,53,6.20
2010,11,04,09,54,6.20
2010,11,04,09,55,6.20
2010,11,04,09,56,6.20
2010,11,04,09,57,6.30
2010,11,04,09,58,6.30
2010,11,04,09,59,6.30
2010,11,04,10,00,6.30
2010,11,04,10,01,6.30
2010,11,04,10,02,6.40
2010,11,04,10,03,6.40
2010,11,04,10,04,6.50
2010,11,04,10,05,6.60
2010,11,04,10,06,6.60
2010,11,04,10,07,6.70
2010,11,04,10,08,6.80
2010,11,04,10,09,7.00
2010,11,04,10,10,7.10
2010,11,04,10,11,7.30
2010,11,04,10,12,7.50
2010,11,04,10,13,7.60
2010,11,04,10,14,7.80
2010,11,04,10,15,7.90
2010,11,04,10,16,8.10
2010,11,04,10,17,8.20
2010,11,04,10,18,8.40
2010,11,04,10,19,8.40
2010,11,04,10,20,8.50
2010,11,04,10,21,8.60
2010,11,04,10,22,8.70
2010,11,04,10,23,8.80
2010,11,04,10,24,8.90
2010,11,04,10,25,9.00
2010,11,04,10,26,9.10
2010,11,04,10,27,9.20
2010,11,04,10,28,9.30
2010,11,04,10,29,9.30
2010,11,04,10,30,9.40
2010,11,04,10,31,9.40
2010,11,04,10,32,9.40
2010,11,04,10,33,9.50
2010,11,04,10,34,9.50
2010,11,04,10,35,9.50
2010,11,04,10,36,9.60
2010,11,04,10,37,9.60
2010,11,04,10,38,9.60
2010,11,04,10,39,9.60
2010,11,04,10,40,9.60
2010,11,04,10,41,9.60
2010,11,04,10,42,9.60
2010,11,04,10,43,9.60
2010,11,04,10,44,9.60
2010,11,04,10,45,9.60
2010,11,04,10,46,9.60
2010,11,04,10,47,9.70
2010,11,04,10,48,9.70
2010,11,04,10,49,9.70
2010,11,04,10,50,9.70
2010,11,04,10,51,9.80
2010,11,04,10,52,9.80
2010,11,04,10,53,9.80
2010,11,04,10,54,9.80
2010,11,04,10,55,9.80
2010,11,04,10,56,9.80
2010,11,04,10,57,9.80
2010,11,04,10,58,9.80
2010,11,04,10,59,9.80
2010,11,04,11,00,9.80
2010,11,04,11,01,9.80
2010,11,04,11,02,9.80
2010,11,04,11,03,9.80
2010,11,04,11,04,9.80
2010,11,04,11,05,9.80
2010,11,04,11,06,9.90
2010,11,04,11,07,9.90
2010,11,04,11,08,9.90
2010,11,04,11,09,9.90
2010,11,04,11,10,10.00
2010,11,04,11,11,10.00
2010,11,04,11,12,10.00
2010,11,04,11,13,10.10
2010,11,04,11,14,10.10
2010,11,04,11,15,10.10
2010,11,04,11,16,10.20
2010,11,04,11,17,10.20
2010,11,04,11,18,10.20
2010,11,04,11,19,10.20
2010,11,04,11,20,10.20
2010,11,04,11,21,10.20
2010,11,04,11,22,10.30
2010,11,04,11,23,10.30
2010,11,04,11,24,10.30
2010,11,04,11,25,10.30
2010,11,04,11,26,10.40
2010,11,04,11,27,10.40
2010,11,04,11,28,10.40
2010,11,04,11,29,10.40
2010,11,04,11,30,10.40
2010,11,04,11,31,10.50
2010,11,04,11,32,10.50
2010,11,04,11,33,10.50
2010,11,04,11,34,10.60
2010,11,04,11,35,10.60
2010,11,04,11,36,10.60
2010,11,04,11,37,10.60
2010,11,04,11,38,10.60
2010,11,04,11,39,10.70
2010,11,04,11,40,10.70
2010,11,04,11,41,10.70
2010,11,04,11,42,10.70
2010,11,04,11,43,10.70
2010,11,04,11,44,10.70
2010,11,04,11,45,10.70
2010,11,04,11,46,10.60
2010,11,04,11,47,10.60
2010,11,04,11,48,10.60
2010,11,04,11,49,10.60
2010,11,04,11,50,10.60
2010,11,04,11,51,10.60
2010,11,04,11,52,10.60
2010,11,04,11,53,10.60
2010,11,04,11,54,10.60
2010,11,04,11,55,10.60
2010,11,04,11,56,10.60
2010,11,04,11,57,10.60
2010,11,04,11,58,10.60
2010,11,04,11,59,10.60
2010,11,04,12,00,10.60
2010,11,04,12,01,10.50
2010,11,04,12,02,10.50
2010,11,04,12,03,10.50
2010,11,04,12,04,10.50
2010,11,04,12,05,10.60
2010,11,04,12,06,10.60
2010,11,04,12,07,10.60
2010,11,04,12,08,10.60
2010,11,04,12,09,10.70
2010,11,04,12,10,10.70
2010,11,04,12,11,10.80
2010,11,04,12,12,10.80
2010,11,04,12,13,10.80
2010,11,04,12,14,10.90
2010,11,04,12,15,10.90
2010,11,04,12,16,11.00
2010,11,04,12,17,11.10
2010,11,04,12,18,11.10
2010,11,04,12,19,11.20
2010,11,04,12,20,11.20
2010,11,04,12,21,11.30
2010,11,04,12,22,11.30
2010,11,04,12,23,11.40
2010,11,04,12,24,11.50
2010,11,04,12,25,11.60
2010,11,04,12,26,11.60
2010,11,04,12,27,11.70
2010,11,04,12,28,11.80
2010,11,04,12,29,12.00
2010,11,04,12,30,12.00
2010,11,04,12,31,12.10
2010,11,04,12,32,12.20
2010,11,04,12,33,12.20
2010,11,04,12,34,12.20
2010,11,04,12,35,12.20
2010,11,04,12,36,12.30
2010,11,04,12,37,12.30
2010,11,04,12,38,12.30
2010,11,04,12,39,12.30
2010,11,04,12,40,12.30
2010,11,04,12,41,12.40
2010,11,04,12,42,12.40
2010,11,04,12,43,12.40
2010,11,04,12,44,12.40
2010,11,04,12,45,12.30
2010,11,04,12,46,12.30
2010,11,04,12,47,12.20
2010,11,04,12,48,12.20
2010,11,04,12,49,12.20
2010,11,04,12,50,12.20
2010,11,04,12,51,12.20
2010,11,04,12,52,12.10
2010,11,04,12,53,12.10
2010,11,04,12,54,12.10
2010,11,04,12,55,12.10
2010,11,04,12,56,12.10
2010,11,04,12,57,12.10
2010,11,04,12,58,12.00
2010,11,04,12,59,12.00
2010,11,04,13,00,12.00
2010,11,04,13,01,12.00
2010,11,04,13,02,12.00
2010,11,04,13,03,11.90
2010,11,04,13,04,11.90
2010,11,04,13,05,11.90
2010,11,04,13,06,11.90
2010,11,04,13,07,11.90
2010,11,04,13,08,11.90
2010,11,04,13,09,11.90
2010,11,04,13,10,11.90
2010,11,04,13,11,11.90
2010,11,04,13,12,11.90
2010,11,04,13,13,11.90
2010,11,04,13,14,11.90
2010,11,04,13,15,11.80
2010,11,04,13,16,11.90
2010,11,04,13,17,11.90
2010,11,04,13,18,11.90
2010,11,04,13,19,12.00
2010,11,04,13,20,12.10
2010,11,04,13,21,12.10
2010,11,04,13,22,12.20
2010,11,04,13,23,12.30
2010,11,04,13,24,12.30
2010,11,04,13,25,12.30
2010,11,04,13,26,12.40
2010,11,04,13,27,12.50
2010,11,04,13,28,12.50
2010,11,04,13,29,12.60
2010,11,04,13,30,12.60
2010,11,04,13,31,12.70
2010,11,04,13,32,12.70
2010,11,04,13,33,12.80
2010,11,04,13,34,12.80
2010,11,04,13,35,12.90
2010,11,04,13,36,12.90
2010,11,04,13,37,12.90
2010,11,04,13,38,13.00
2010,11,04,13,39,13.00
2010,11,04,13,40,13.10
2010,11,04,13,41,13.10
2010,11,04,13,42,13.10
2010,11,04,13,43,13.10
2010,11,04,13,44,13.10
2010,11,04,13,45,13.20
2010,11,04,13,46,13.20
2010,11,04,13,47,13.20
2010,11,04,13,48,13.20
2010,11,04,13,49,13.20
2010,11,04,13,50,13.20
2010,11,04,13,51,13.20
2010,11,04,13,52,13.20
2010,11,04,13,53,13.10
2010,11,04,13,54,13.10
2010,11,04,13,55,13.10
2010,11,04,13,56,13.10
2010,11,04,13,57,13.20
2010,11,04,13,58,13.30
2010,11,04,13,59,13.30
2010,11,04,14,00,13.30
2010,11,04,14,01,13.40
2010,11,04,14,02,13.50
2010,11,04,14,03,13.60
2010,11,04,14,04,13.70
2010,11,04,14,05,13.70
2010,11,04,14,06,13.70
2010,11,04,14,07,13.80
2010,11,04,14,08,13.80
2010,11,04,14,09,13.80
2010,11,04,14,10,13.80
2010,11,04,14,11,13.80
2010,11,04,14,12,13.90
2010,11,04,14,13,13.90
2010,11,04,14,14,14.00
2010,11,04,14,15,14.10
2010,11,04,14,16,14.10
2010,11,04,14,17,14.20
2010,11,04,14,18,14.20
2010,11,04,14,19,14.20
2010,11,04,14,20,14.20
2010,11,04,14,21,14.20
2010,11,04,14,22,14.10
2010,11,04,14,23,14.00
2010,11,04,14,24,13.90
2010,11,04,14,25,13.90
2010,11,04,14,26,13.90
2010,11,04,14,27,13.90
2010,11,04,14,28,13.80
2010,11,04,14,29,13.80
2010,11,04,14,30,13.70
2010,11,04,14,31,13.70
2010,11,04,14,32,13.70
2010,11,04,14,33,13.70
2010,11,04,14,34,13.70
2010,11,04,14,35,13.70
2010,11,04,14,36,13.70
2010,11,04,14,37,13.60
2010,11,04,14,38,13.60
2010,11,04,14,39,13.60
2010,11,04,14,40,13.50
2010,11,04,14,41,13.50
2010,11,04,14,42,13.60
2010,11,04,14,43,13.60
2010,11,04,14,44,13.60
2010,11,04,14,45,13.60
2010,11,04,14,46,13.60
2010,11,04,14,47,13.60
2010,11,04,14,48,13.60
2010,11,04,14,49,13.60
2010,11,04,14,50,13.60
2010,11,04,14,51,13.60
2010,11,04,14,52,13.60
2010,11,04,14,53,13.70
2010,11,04,14,54,13.70
2010,11,04,14,55,13.70
2010,11,04,14,56,13.70
2010,11,04,14,57,13.70
2010,11,04,14,58,13.60
2010,11,04,14,59,13.60
2010,11,04,15,00,13.60
2010,11,04,15,01,13.50
2010,11,04,15,02,13.50
2010,11,04,15,03,13.40
2010,11,04,15,04,13.40
2010,11,04,15,05,13.40
2010,11,04,15,06,13.40
2010,11,04,15,07,13.40
2010,11,04,15,08,13.30
2010,11,04,15,09,13.40
2010,11,04,15,10,13.40
2010,11,04,15,11,13.40
2010,11,04,15,12,13.40
2010,11,04,15,13,13.40
2010,11,04,15,14,13.50
2010,11,04,15,15,13.60
2010,11,04,15,16,13.60
2010,11,04,15,17,13.60
2010,11,04,15,18,13.70
2010,11,04,15,19,13.70
2010,11,04,15,20,13.80
2010,11,04,15,21,13.80
2010,11,04,15,22,13.90
2010,11,04,15,23,14.00
2010,11,04,15,24,14.00
2010,11,04,15,25,14.10
2010,11,04,15,26,14.10
2010,11,04,15,27,14.10
2010,11,04,15,28,14.10
2010,11,04,15,29,14.10
2010,11,04,15,30,14.10
2010,11,04,15,31,14.00
2010,11,04,15,32,14.00
2010,11,04,15,33,14.00
2010,11,04,15,34,13.90
2010,11,04,15,35,13.90
2010,11,04,15,36,13.80
2010,11,04,15,37,13.80
2010,11,04,15,38,13.80
2010,11,04,15,39,13.70
2010,11,04,15,40,13.70
2010,11,04,15,41,13.60
2010,11,04,15,42,13.50
2010,11,04,15,43,13.40
2010,11,04,15,44,13.30
2010,11,04,15,45,13.30
2010,11,04,15,46,13.20
2010,11,04,15,47,13.20
2010,11,04,15,48,13.10
2010,11,04,15,49,13.10
2010,11,04,15,50,13.10
2010,11,04,15,51,13.10
2010,11,04,15,52,13.00
2010,11,04,15,53,13.00
2010,11,04,15,54,13.00
2010,11,04,15,55,12.90
2010,11,04,15,56,12.90
2010,11,04,15,57,12.90
2010,11,04,15,58,12.80
2010,11,04,15,59,12.80
2010,11,04,16,00,12.70
2010,11,04,16,01,12.70
2010,11,04,16,02,12.70
2010,11,04,16,03,12.70
2010,11,04,16,04,12.70
2010,11,04,16,05,12.70
2010,11,04,16,06,12.60
2010,11,04,16,07,12.50
2010,11,04,16,08,12.50
2010,11,04,16,09,12.40
2010,11,04,16,10,12.40
2010,11,04,16,11,12.40
2010,11,04,16,12,12.30
2010,11,04,16,13,12.30
2010,11,04,16,14,12.30
2010,11,04,16,15,12.30
2010,11,04,16,16,12.20
2010,11,04,16,17,12.20
2010,11,04,16,18,12.20
2010,11,04,16,19,12.20
2010,11,04,16,20,12.20
2010,11,04,16,21,12.20
2010,11,04,16,22,12.20
2010,11,04,16,23,12.20
2010,11,04,16,24,12.20
2010,11,04,16,25,12.20
2010,11,04,16,26,12.20
2010,11,04,16,27,12.20
2010,11,04,16,28,12.20
2010,11,04,16,29,12.20
2010,11,04,16,30,12.20
2010,11,04,16,31,12.20
2010,11,04,16,32,12.30
2010,11,04,16,33,12.30
2010,11,04,16,34,12.30
2010,11,04,16,35,12.20
2010,11,04,16,36,12.20
2010,11,04,16,37,12.20
2010,11,04,16,38,12.20
2010,11,04,16,39,12.20
2010,11,04,16,40,12.20
2010,11,04,16,41,12.20
2010,11,04,16,42,12.20
2010,11,04,16,43,12.20
2010,11,04,16,44,12.20
2010,11,04,16,45,12.20
2010,11,04,16,46,12.20
2010,11,04,16,47,12.20
2010,11,04,16,48,12.20
2010,11,04,16,49,12.20
2010,11,04,16,50,12.30
2010,11,04,16,51,12.30
2010,11,04,16,52,12.30
2010,11,04,16,53,12.30
2010,11,04,16,54,12.30
2010,11,04,16,55,12.30
2010,11,04,16,56,12.30
2010,11,04,16,57,12.30
2010,11,04,16,58,12.30
2010,11,04,16,59,12.30
2010,11,04,17,00,12.30
2010,11,04,17,01,12.30
2010,11,04,17,02,12.20
2010,11,04,17,03,12.20
2010,11,04,17,04,12.20
2010,11,04,17,05,12.20
2010,11,04,17,06,12.20
2010,11,04,17,07,12.20
2010,11,04,17,08,12.20
2010,11,04,17,09,12.20
2010,11,04,17,10,12.20
2010,11,04,17,11,12.30
2010,11,04,17,12,12.30
2010,11,04,17,13,12.30
2010,11,04,17,14,12.30
2010,11,04,17,15,12.30
2010,11,04,17,16,12.30
2010,11,04,17,17,12.30
2010,11,04,17,18,12.30
2010,11,04,17,19,12.30
2010,11,04,17,20,12.30
2010,11,04,17,21,12.30
2010,11,04,17,22,12.30
2010,11,04,17,23,12.20
2010,11,04,17,24,12.20
2010,11,04,17,25,12.20
2010,11,04,17,26,12.20
2010,11,04,17,27,12.20
2010,11,04,17,28,12.20
2010,11,04,17,29,12.10
2010,11,04,17,30,12.10
2010,11,04,17,31,12.10
2010,11,04,17,32,12.10
2010,11,04,17,33,12.10
2010,11,04,17,34,12.00
2010,11,04,17,35,12.00
2010,11,04,17,36,12.00
2010,11,04,17,37,12.00
2010,11,04,17,38,11.90
2010,11,04,17,39,11.90
2010,11,04,17,40,11.90
2010,11,04,17,41,11.90
2010,11,04,17,42,11.90
2010,11,04,17,43,11.90
2010,11,04,17,44,11.80
2010,11,04,17,45,11.80
2010,11,04,17,46,11.80
2010,11,04,17,47,11.80
2010,11,04,17,48,11.80
2010,11,04,17,49,11.80
2010,11,04,17,50,11.80
2010,11,04,17,51,11.80